Simultaneous Nadir Overpasses (SNOs) Predictions

Prediction of SNOs between LANDSAT-8 and METOP-A Satellite Orbit:

Table of predicted SNOs for the next 14.0 days since TLE Epoch: 12/4/2015
Index Date (LANDSAT-8) Time (LANDSAT-8) Lat,Lon (LANDSAT-8) SZA (LANDSAT-8 ) Date (METOP-A) Time (METOP-A) Lat,Lon (METOP-A) SZA (METOP-A ) Distance(km) Time Diff (sec)
1 12/06/2015 06:35:56 81.11, 120.69 105.69 12/06/2015 06:35:29 81.12, 120.83 105.70 2.47 27
2 12/06/2015 07:25:22 -81.13, -71.38 74.26 12/06/2015 07:26:09 -81.13, -71.33 74.23 1.15 47
3 12/09/2015 02:10:10 81.12,-172.71 106.00 12/09/2015 02:09:53 81.12,-172.57 106.01 2.40 17
4 12/09/2015 02:59:36 -81.14, -4.76 73.96 12/09/2015 03:00:33 -81.14, -4.72 73.93 0.83 57
5 12/11/2015 21:44:23 81.12,-106.18 106.23 12/11/2015 21:44:16 81.13,-106.01 106.25 3.06 7
6 12/11/2015 22:33:49 -81.15, 61.79 73.72 12/11/2015 22:34:56 -81.14, 61.86 73.69 1.28 67
7 12/14/2015 16:29:12 -81.10, 152.25 73.67 12/14/2015 16:28:02 -81.10, 152.38 73.68 2.28 70
8 12/14/2015 17:18:37 81.13, -39.72 106.40 12/14/2015 17:18:41 81.12, -39.85 106.38 2.24 4
9 12/17/2015 12:03:26 -81.10,-141.34 73.57 12/17/2015 12:02:27 -81.09,-141.49 73.61 2.61 59




NCC Satellite Simultaneous Nadir Overpasses (SNOs) Prediction Service
